User: anonymous   Login
Location: Unspecified
(0.0000°N, 0.0000°E)
Time: 21:41:47
(UTC+00:00)
Language:

EUTE 9B - Orbit

View from above orbital plane
View from above orbital plane
View from above satellite
View from above satellite

Ground track
Ground track

The orbit data is extracted from the following two-line orbital elements,

1 41310U 16005A   22267.23311580  .00000060  00000-0  00000-0 0  9999
2 41310   0.0475  62.0725 0004199 166.5213 227.3842  1.00270964 24469
Epoch (UTC): 24 September 2022 05:35:41
Eccentricity: 0.0004199
inclination: 0.0475°
perigee height: 35769 km
apogee height: 35804 km
right ascension of ascending node: 62.0725°
argument of perigee: 166.5213°
revolutions per day: 1.00270964
mean anomaly at epoch: 227.3842°
orbit number at epoch: 2446

The dashed part of the orbit path shows where the satellite is in the earth's shadow,  

DLR